GFSFLT2_850_temp_135.txt.gz
Temp
17 19 19 19 19 19 19 19 19 18 18 18 18 18 18 18 18 18 18 17 17 17 17 17 16 16 16 16 15 15 16 16
17 16 18 18 18 18 18 18 18 18 18 18 18 18 18 17 17 17 17 17 17 17 16 16 16 16 16 16 15 15 16 15
17 16 16 16 17 18 18 18 18 18 18 17 17 17 17 17 17 17 17 17 16 16 16 16 16 15 15 15 15 15 15 15
18 18 17 16 16 16 17 17 17 17 17 17 16 16 16 15 16 16 16 16 16 16 16 15 15 15 15 15 15 14 15 15
19 18 17 17 17 17 15 15 16 16 16 16 16 15 15 15 15 16 16 16 15 15 15 15 15 14 14 14 14 15 16 15
20 19 17 17 18 17 17 16 15 15 15 15 15 15 15 15 15 14 14 15 14 14 14 13 14 15 14 15 14 15 16 15
21 19 18 17 17 18 17 17 16 16 16 15 15 15 15 15 15 15 14 15 15 15 15 14 15 14 14 14 14 14 15 15
21 19 17 17 16 17 16 16 17 17 16 16 15 16 16 15 15 15 15 15 16 15 15 16 15 15 14 14 14 14 14 14
20 19 17 16 16 16 16 16 16 17 17 16 16 16 16 16 15 15 15 15 15 15 15 15 16 16 15 15 14 14 14 14
18 19 18 16 16 16 16 16 16 17 16 16 15 15 16 15 15 16 15 15 15 15 16 15 15 16 16 15 14 14 14 14
18 18 18 16 15 15 15 16 16 15 15 16 15 15 15 15 16 15 16 15 14 14 15 14 15 14 15 15 15 14 14 13
17 17 18 17 16 14 14 15 15 15 15 15 15 15 15 15 15 15 15 15 14 14 15 15 15 15 15 14 14 14 14 14
15 16 17 17 16 15 14 15 15 15 15 15 15 16 14 15 15 14 14 15 14 14 14 14 14 14 14 13 13 13 13 13
15 15 15 16 16 15 14 14 15 16 16 15 15 15 15 14 14 14 15 14 15 15 13 13 13 13 13 13 13 13 12 13
14 14 14 15 16 16 15 14 15 14 16 16 15 15 15 16 16 14 14 14 15 15 14 13 13 13 13 13 14 15 16 14
14 14 14 14 16 17 15 14 14 14 15 17 15 15 16 18 16 14 14 14 14 14 13 13 13 12 12 13 14 15 15 15
12 14 13 14 15 16 16 14 15 16 15 17 15 14 15 17 17 16 14 14 14 13 13 13 13 13 12 13 13 13 14 13
8 11 13 13 14 16 16 15 15 16 16 16 16 15 15 14 15 15 14 13 13 14 15 14 12 13 13 14 13 13 14 13
4 6 8 11 13 14 15 16 15 16 16 16 15 14 14 14 14 14 14 13 13 15 16 17 16 14 13 14 14 14 14 12
1 2 4 7 13 14 11 14 13 15 16 15 14 15 15 14 14 14 13 13 14 14 15 16 16 15 12 13 14 15 15 13

GFSFLT2_850_temp_141.txt.gz
Temp
19 19 18 19 19 19 19 19 19 19 19 19 19 19 18 18 17 17 17 17 17 17 17 17 17 16 17 16 16 15 14 14
20 20 19 19 19 19 18 18 18 19 19 19 19 18 18 18 18 17 17 17 17 17 17 17 17 16 16 16 16 15 15 15
19 20 20 20 19 19 18 18 18 18 18 18 18 18 18 18 18 17 17 17 17 17 17 17 17 16 16 16 16 15 15 15
20 19 20 20 19 19 18 18 18 18 18 18 17 18 18 18 18 17 17 17 17 17 17 17 16 16 16 16 15 15 15 15
19 18 18 19 20 19 18 18 18 17 17 17 17 17 17 17 17 17 17 16 16 17 17 16 16 16 16 16 15 15 15 15
19 19 17 17 18 19 18 17 17 17 17 17 17 17 17 17 17 17 17 17 17 17 17 16 16 16 16 15 15 15 15 15
18 19 19 18 16 18 19 18 17 17 17 17 17 17 17 17 17 17 17 17 17 16 16 16 16 15 15 15 15 15 15 15
18 18 18 18 18 16 17 18 17 17 17 17 17 17 17 17 17 17 16 16 17 16 16 16 16 15 15 15 15 15 15 15
16 17 17 16 18 17 16 17 18 17 17 17 17 17 17 17 17 16 16 16 16 16 15 15 15 15 15 15 15 15 15 15
16 16 17 15 17 17 17 16 17 18 16 17 17 16 17 17 16 16 16 16 15 15 15 15 15 16 15 15 15 15 15 14
15 15 16 17 16 16 16 17 16 17 18 16 16 16 16 16 16 16 16 16 15 15 15 15 15 15 16 16 16 15 15 14
10 11 12 15 16 16 16 15 16 15 16 17 15 16 16 16 16 16 16 15 15 15 15 15 15 15 15 15 16 15 15 15
7 7 10 11 14 13 15 15 16 16 16 16 16 15 16 16 16 16 16 15 16 16 15 15 15 16 15 15 15 15 15 15
5 4 5 8 9 11 11 13 14 16 15 15 15 16 15 16 16 16 16 15 15 16 15 15 15 15 15 15 15 15 15 14
2 2 2 5 7 9 12 13 13 15 15 14 15 15 15 16 16 16 16 15 15 16 16 15 15 14 14 15 14 14 14 14
0 1 1 2 4 7 8 9 11 13 15 15 15 15 15 15 16 16 16 16 15 15 16 16 15 15 14 14 15 15 14 14
-1 -0 1 1 1 3 6 8 11 12 13 14 15 15 14 14 15 16 16 16 15 15 15 15 15 15 16 15 14 14 15 15
-2 -2 -1 -0 1 2 3 4 9 11 12 12 14 14 14 14 14 16 16 16 15 16 16 16 16 15 16 15 16 15 14 14
-3 -3 -1 -1 0 1 3 3 6 8 10 12 12 12 14 13 13 15 15 15 15 16 16 16 16 15 16 15 15 15 15 15
-4 -3 -3 -1 -0 1 2 2 4 6 8 11 12 12 12 11 12 14 15 14 15 14 15 16 16 15 15 15 14 14 14 14

GFSFLT2_850_temp_144.txt.gz
Temp
19 19 18 19 19 19 19 19 19 19 19 18 19 18 19 19 18 18 18 17 17 17 17 17 16 16 16 15 15 15 16 16
19 19 19 19 19 19 19 19 19 19 18 18 18 18 18 18 18 18 18 18 17 17 17 17 16 16 16 15 14 15 15 15
18 17 18 19 19 19 19 19 18 18 18 18 18 17 17 18 18 18 18 17 17 17 17 17 16 16 16 15 14 15 15 15
17 18 17 17 18 18 18 19 18 18 18 18 17 17 17 18 18 18 17 17 17 17 17 16 16 16 16 15 15 15 15 15
17 16 15 16 16 17 18 18 18 18 18 18 17 17 17 17 17 17 17 17 17 17 17 17 16 16 16 15 15 15 15 14
16 17 16 16 15 16 15 16 18 18 18 18 17 17 16 17 17 17 17 17 17 17 17 17 16 16 16 15 15 15 15 15
17 17 17 17 16 14 14 16 16 18 18 18 17 17 16 16 17 17 17 17 17 17 17 16 16 16 15 15 15 14 15 15
16 17 17 17 17 16 16 14 16 16 17 18 18 17 17 16 16 17 17 17 17 17 17 17 16 16 15 15 15 15 15 15
16 17 17 17 17 17 16 15 14 14 16 17 17 17 17 17 16 16 17 17 17 16 16 16 16 15 15 15 15 15 15 15
15 16 16 16 16 17 17 17 15 14 14 16 16 16 16 17 16 16 17 17 16 16 16 16 15 15 15 15 15 15 15 14
13 13 13 14 14 15 15 17 16 16 14 14 14 15 15 16 16 16 16 16 16 15 15 15 15 15 15 15 15 15 15 15
8 9 10 10 10 11 12 14 16 16 16 15 14 15 15 15 16 16 16 15 16 15 15 15 15 15 15 15 15 15 15 15
7 7 7 7 8 8 10 10 14 15 15 16 16 15 15 14 14 16 16 15 15 15 15 15 15 15 15 15 15 16 15 15
7 6 4 4 5 5 5 6 8 11 14 15 15 15 15 15 14 14 16 15 15 15 15 15 15 15 15 15 15 15 15 15
4 2 3 2 2 3 4 4 6 9 11 13 14 14 15 15 15 14 13 15 15 15 15 15 15 15 15 15 14 15 15 15
1 1 0 0 0 -1 -0 1 2 3 7 11 13 13 14 14 15 14 14 14 16 15 15 15 14 15 15 14 15 15 15 15
-1 -1 -1 -1 -1 -1 -0 0 1 2 4 7 12 13 13 14 14 14 13 10 15 15 15 15 14 15 15 14 14 15 15 15
-1 -1 -2 -2 -2 -1 -1 -0 0 2 2 4 9 11 12 13 13 12 12 13 14 14 15 15 15 14 15 14 15 14 14 15
-1 -1 -1 -2 -3 -3 -1 -0 0 1 1 3 6 10 11 11 12 11 12 12 12 13 14 15 15 15 15 15 15 15 15 14
-2 -1 -2 -3 -3 -3 -3 -1 -0 1 1 2 3 6 9 10 11 11 11 12 11 11 13 14 16 15 15 15 15 15 15 15

GFSFLT2_850_temp_147.txt.gz
Temp
17 17 17 18 18 18 19 19 19 18 18 18 18 18 18 18 18 18 18 18 17 17 16 16 16 16 16 16 15 15 15 15
16 15 16 16 16 17 18 19 19 18 18 18 17 17 17 17 18 18 18 18 18 17 17 16 16 16 16 16 15 15 15 15
16 15 15 16 15 16 16 17 18 18 18 17 17 17 17 17 17 18 18 18 17 17 17 16 16 16 16 15 15 15 15 15
16 16 16 16 15 15 15 16 17 17 17 18 17 17 17 17 17 17 17 17 17 17 17 16 16 16 16 15 15 15 15 15
16 16 16 17 17 16 14 14 15 16 17 17 17 17 17 16 16 16 17 17 17 17 17 17 16 16 16 15 15 15 15 15
15 16 16 16 16 16 14 14 14 14 15 16 16 17 17 16 16 16 16 17 17 17 17 17 16 16 16 15 15 15 15 15
16 16 16 16 16 16 16 15 15 15 15 14 16 16 17 17 16 16 16 16 17 17 16 16 16 16 16 15 15 15 15 15
15 16 16 16 17 17 16 16 17 17 16 14 14 15 15 16 17 16 16 16 17 17 17 16 16 16 16 15 15 15 15 15
14 15 15 16 17 17 16 17 16 16 16 14 14 14 14 14 15 16 16 16 16 16 16 16 15 15 15 15 15 15 15 15
12 13 14 15 16 16 16 15 16 16 15 15 15 14 14 14 14 15 16 16 16 16 16 16 15 15 15 15 15 15 15 15
11 12 12 12 12 12 13 13 13 14 14 15 15 16 15 14 14 14 15 15 16 16 16 15 15 15 15 15 15 15 15 15
8 9 10 10 10 10 10 10 11 11 12 13 14 14 15 14 13 14 14 14 15 16 15 15 15 15 15 15 15 15 15 15
6 7 7 7 9 9 9 7 7 9 11 11 12 13 13 13 13 14 13 14 14 14 15 15 15 15 15 14 15 15 14 15
7 6 5 5 5 5 4 3 3 3 6 9 10 12 13 14 12 12 13 14 15 13 13 15 15 14 14 14 14 14 14 15
4 4 3 3 3 3 2 2 1 1 1 4 8 9 11 12 13 12 12 13 13 13 13 15 15 14 14 14 13 14 14 15
3 3 2 2 2 1 0 -1 -1 -1 -0 1 2 7 9 11 12 12 12 12 12 12 12 13 15 13 14 14 14 15 14 15
2 2 1 1 -1 -2 -3 -2 -2 -1 -0 0 1 5 7 9 11 11 11 12 12 11 11 11 14 14 15 15 14 14 15 15
1 0 -1 -1 -2 -2 -3 -3 -3 -2 -2 -0 -0 2 6 8 9 10 10 11 12 12 12 12 12 13 14 15 15 13 14 15
-0 -0 -0 -1 -2 -2 -3 -4 -3 -3 -3 -2 -1 0 2 7 6 7 10 10 11 12 12 12 13 12 12 14 15 15 14 14
-1 -1 -1 -2 -2 -2 -3 -3 -3 -3 -3 -2 -1 -0 0 3 5 6 7 10 10 12 12 12 10 10 12 13 14 16 14 14